TimeEST,TemperatureF,Dew PointF,Humidity,Sea Level PressureIn,VisibilityMPH,Wind Direction,Wind SpeedMPH,Gust SpeedMPH,PrecipitationIn,Events,Conditions,WindDirDegrees,DateUTC
12:54 AM,9.0,3.0,77,30.21,10.0,SSW,5.8,-,N/A,,Clear,200,2013-01-03 05:54:00
1:54 AM,10.0,3.0,73,30.21,10.0,SSW,4.6,-,N/A,,Clear,210,2013-01-03 06:54:00
2:54 AM,10.0,3.0,73,30.21,10.0,WSW,6.9,-,N/A,,Clear,240,2013-01-03 07:54:00
3:54 AM,9.0,3.0,77,30.21,10.0,SW,9.2,-,N/A,,Partly Cloudy,220,2013-01-03 08:54:00
4:54 AM,12.0,5.0,73,30.19,10.0,SW,8.1,-,N/A,,Mostly Cloudy,220,2013-01-03 09:54:00
5:54 AM,15.1,7.0,70,30.20,10.0,SW,8.1,-,N/A,,Overcast,230,2013-01-03 10:54:00
6:54 AM,17.6,8.6,68,30.15,10.0,SW,10.4,-,N/A,,Overcast,220,2013-01-03 11:54:00
7:54 AM,19.0,8.1,62,30.19,10.0,SW,15.0,-,N/A,,Overcast,230,2013-01-03 12:54:00
8:54 AM,18.0,9.0,68,30.20,10.0,SW,11.5,-,N/A,,Scattered Clouds,230,2013-01-03 13:54:00
9:31 AM,19.4,12.2,74,30.15,10.0,WSW,11.5,-,N/A,,Mostly Cloudy,240,2013-01-03 14:31:00
9:54 AM,19.9,12.9,74,30.21,10.0,WSW,12.7,-,N/A,,Mostly Cloudy,240,2013-01-03 14:54:00
10:54 AM,23.0,16.0,74,30.23,10.0,WSW,12.7,-,N/A,,Overcast,240,2013-01-03 15:54:00
11:05 AM,23.0,17.6,80,30.18,10.0,WSW,12.7,-,N/A,,Overcast,240,2013-01-03 16:05:00
11:54 AM,25.0,19.9,81,30.21,9.0,WSW,13.8,-,N/A,,Overcast,240,2013-01-03 16:54:00
12:54 PM,26.1,21.0,81,30.20,8.0,WSW,16.1,-,N/A,,Overcast,250,2013-01-03 17:54:00
1:10 PM,26.6,21.2,80,30.15,8.0,WSW,16.1,-,N/A,,Overcast,250,2013-01-03 18:10:00
1:49 PM,26.6,21.2,80,30.15,8.0,WSW,17.3,-,N/A,,Overcast,250,2013-01-03 18:49:00
1:54 PM,27.0,21.9,81,30.19,8.0,West,18.4,-,N/A,,Overcast,260,2013-01-03 18:54:00
2:54 PM,28.0,21.9,78,30.20,8.0,WSW,15.0,-,N/A,,Overcast,250,2013-01-03 19:54:00
3:38 PM,28.4,23.0,80,30.17,8.0,WSW,17.3,-,N/A,,Overcast,250,2013-01-03 20:38:00
3:54 PM,28.0,23.0,81,30.22,9.0,WSW,17.3,-,0.00,Snow,Light Snow,250,2013-01-03 20:54:00
4:05 PM,28.4,23.0,80,30.18,6.0,WSW,13.8,-,0.00,Snow,Light Snow,250,2013-01-03 21:05:00
4:54 PM,28.0,23.0,81,30.24,8.0,West,11.5,-,0.00,Snow,Light Snow,260,2013-01-03 21:54:00
5:02 PM,28.4,23.0,80,30.20,6.0,West,12.7,-,0.00,Snow,Light Snow,260,2013-01-03 22:02:00
5:54 PM,28.9,24.1,82,30.25,7.0,WSW,12.7,-,0.00,Snow,Light Snow,250,2013-01-03 22:54:00
6:12 PM,28.4,24.8,86,30.21,8.0,West,11.5,-,0.00,,Overcast,260,2013-01-03 23:12:00
6:54 PM,28.9,24.1,82,30.25,10.0,West,11.5,-,0.00,,Overcast,260,2013-01-03 23:54:00
7:54 PM,28.0,21.9,78,30.27,10.0,West,12.7,-,N/A,,Overcast,260,2013-01-04 00:54:00
8:13 PM,28.4,21.2,74,30.23,10.0,West,10.4,-,N/A,,Overcast,260,2013-01-04 01:13:00
8:54 PM,28.0,21.9,78,30.28,10.0,West,9.2,-,N/A,,Overcast,270,2013-01-04 01:54:00
9:54 PM,28.0,21.9,78,30.28,10.0,West,10.4,-,N/A,,Overcast,270,2013-01-04 02:54:00
10:29 PM,28.4,21.2,74,30.24,10.0,West,12.7,-,N/A,,Overcast,270,2013-01-04 03:29:00
10:54 PM,28.0,21.0,75,30.27,10.0,WSW,13.8,-,N/A,,Overcast,250,2013-01-04 03:54:00
11:54 PM,26.1,19.0,75,30.28,10.0,WSW,12.7,-,N/A,,Overcast,240,2013-01-04 04:54:00